Regional Weather Roundup
Issued by NWS

Home | Current Version | Previous Version | Text Only | Print | Product List | Glossary On
Versions: 1 2 3 4 5 6 7 8 9 10 11 12 13 14 15 16 17 18 19 20 21 22 23 24 25 26 27 28 29 30 31 32 33 34 35 36 37 38 39 40 41 42 43 44 45 46 47 48 49 50
000
ASUS44 KMEG 281700
RWRTN
TENNESSEE HOURLY STATE WEATHER ROUNDUP
NATIONAL WEATHER SERVICE MEMPHIS TN
1200 PM CDT SAT MAY 28 2016

TNZ002-004-019-021-049-052-054-088>092-281800-
WEST TENNESSEE

CITY           SKY/WX    TMP DP  RH WIND       PRES   REMARKS
MEMPHIS INTL   PTSUNNY   83  69  62 S7        30.02S
NWS MEMPHIS      N/A     82 N/A N/A MISG        N/A
JACKSON        CLOUDY    80  66  62 S8        30.04S
DYERSBURG      CLOUDY    81  66  61 SW6       30.02S
UNION CITY     MOSUNNY   82  70  65 S12       30.02S
PARIS          SUNNY     79  64  61 S9        30.05F
LEXINGTON      SUNNY     82  64  54 S8        30.05S
$$

TNZ008-025-027-028-033-062-065-066-281800-
NORTH MIDDLE TENNESSEE

CITY           SKY/WX    TMP DP  RH WIND       PRES   REMARKS
NASHVILLE      CLOUDY    81  61  50 S10       30.10S
CLARKSVILLE    CLOUDY    80  68  66 S6        30.06S
COOKEVILLE     SUNNY     84  63  48 SW8       30.13S
CROSSVILLE     MOSUNNY   78  59  51 VRB7      30.19F
$$

TNZ061-075-076-078-094-096-097-281800-
SOUTH MIDDLE TENNESSEE

CITY           SKY/WX    TMP DP  RH WIND       PRES   REMARKS
TULLAHOMA      SUNNY     75  68  78 SE6       30.14F
WINCHESTER     SUNNY     79  63  57 S8        30.13F
MCMINNVILLE    SUNNY     79  64  61 SW8       30.14S
COLUMBIA       SUNNY     82  70  65 S10       30.08S
SHELBYVILLE    SUNNY     81  64  57 SE7       30.13S
$$

TNZ017-018-042-046-047-281800-
NORTHEAST TENNESSEE

CITY           SKY/WX    TMP DP  RH WIND       PRES   REMARKS
TRI CITIES     MOSUNNY   81  57  43 VRB3      30.19F
$$

TNZ012-013-036-069-073-074-281800-
CENTRAL EAST TENNESSEE

CITY           SKY/WX    TMP DP  RH WIND       PRES   REMARKS
KNOXVILLE      CLOUDY    78  63  59 VRB6      30.16F
OAK RIDGE      MOSUNNY   80  62  54 CALM      30.18F
GATLINBURG       N/A     81  61  50 CALM      30.16F
$$

TNZ083-085-099-281800-
SOUTHEAST TENNESSEE

CITY           SKY/WX    TMP DP  RH WIND       PRES   REMARKS
CHATTANOOGA    PTSUNNY   84  57  39 S8        30.13F
$$

SKY/WX REPORTED AS FAIR MEANS FEW OR NO CLOUDS BELOW
12 THOUSAND FEET.




USA.gov is the U.S. government's official web portal to all federal, state and local government web resources and services.